| time (UTC) | temp F | wind direction | speed MPH | gust MPH | rain 1hr in | rain 24hr in | rain mn in | humidity % | barometer mb |
| 20260905110058 | 64 | 265 | 14.0 | 25.0 | 0.00 | 0.00 | 0.00 | 67 | 1017.7 |
| 20260905104555 | 63 | 246 | 10.0 | 14.0 | 0.00 | 0.00 | 0.00 | 70 | 1018.2 |
| 20260905103104 | 63 | 251 | 2.0 | 8.0 | 0.00 | 0.00 | 0.00 | 72 | 1018.3 |
| 20260905101549 | 61 | 215 | 4.0 | 21.0 | 0.00 | 0.00 | 0.00 | 74 | 1017.8 |
| 20260905100101 | 61 | 248 | 15.0 | 23.0 | 0.00 | 0.00 | 0.00 | 76 | 1018.7 |
| 20260905094551 | 60 | 267 | 18.0 | 24.0 | 0.00 | 0.00 | 0.00 | 74 | 1017.2 |
| 20260905093107 | 60 | 254 | 18.0 | 25.0 | 0.00 | 0.00 | 0.00 | 75 | 1017.3 |
| 20260905091601 | 61 | 257 | 18.0 | 28.0 | 0.00 | 0.00 | 0.00 | 75 | 1016.8 |
| 20260905090057 | 60 | 236 | 14.0 | 20.0 | 0.00 | 0.00 | 0.00 | 76 | 1016.9 |
| 20260905084603 | 61 | 261 | 23.0 | 37.0 | 0.00 | 0.00 | 0.00 | 72 | 1017.6 |
| 20260905083100 | 62 | 248 | 18.0 | 27.0 | 0.00 | 0.00 | 0.00 | 68 | 1016.7 |
| 20260905081559 | 65 | 251 | 21.0 | 36.0 | 0.00 | 0.00 | 0.00 | 62 | 1016.7 |
| 20260905080101 | 67 | 245 | 13.0 | 21.0 | 0.00 | 0.00 | 0.00 | 60 | 1016.9 |
| 20260905074609 | 69 | 227 | 10.0 | 18.0 | 0.00 | 0.00 | 0.00 | 60 | 1016.6 |
| 20260905073056 | 66 | 0 | 5.0 | 22.0 | 0.00 | 0.00 | 0.00 | 64 | 1016.2 |
| 20260905071552 | 66 | 199 | 6.0 | 13.0 | 0.00 | 0.00 | 0.00 | 70 | 1017.1 |
| 20260905070055 | 65 | 126 | 1.0 | 6.0 | 0.00 | 0.00 | 0.00 | 74 | 1016.8 |
| 20260905064609 | 64 | 360 | 4.0 | 8.0 | 0.00 | 0.00 | 0.00 | 76 | 1017.2 |
| 20260905063058 | 63 | 26 | 6.0 | 11.0 | 0.00 | 0.00 | 0.00 | 78 | 1016.8 |
| 20260905061553 | 62 | 302 | 5.0 | 14.0 | 0.00 | 0.00 | 0.00 | 78 | 1016.4 |
| 20260905060050 | 61 | 242 | 5.0 | 16.0 | 0.00 | 0.00 | 0.00 | 81 | 1016.4 |
| 20260905054600 | 59 | 209 | 1.0 | 4.0 | 0.00 | 0.00 | 0.00 | 84 | 1016.4 |
| 20260905053055 | 58 | 232 | 0.0 | 3.0 | 0.00 | 0.00 | 0.00 | 85 | 1016.2 |
| 20260905051553 | 57 | 0 | 1.0 | 5.0 | 0.00 | 0.00 | 0.00 | 85 | 1016.2 |
| 20260905050056 | 57 | 252 | 4.0 | 7.0 | 0.00 | 0.00 | 0.00 | 84 | 1015.8 |
| 20260905044550 | 58 | 273 | 0.0 | 4.0 | 0.00 | 0.00 | 0.00 | 82 | 1015.4 |
| 20260905043058 | 59 | 238 | 0.0 | 5.0 | 0.00 | 0.00 | 0.00 | 81 | 1015.3 |
| 20260905041558 | 60 | 64 | 0.0 | 6.0 | 0.00 | 0.00 | 0.00 | 81 | 1015.3 |
| 20260905040050 | 61 | 0 | 3.0 | 10.0 | 0.00 | 0.00 | 0.00 | 82 | 1015.1 |
| 20260905034604 | 61 | 229 | 6.0 | 11.0 | 0.00 | 0.00 | 0.00 | 82 | 1015.2 |
| 20260905033059 | 62 | 113 | 3.0 | 6.0 | 0.00 | 0.00 | 0.00 | 80 | 1014.7 |
| 20260905031612 | 63 | 118 | 0.0 | 3.0 | 0.00 | 0.00 | 0.00 | 79 | 1014.8 |
| 20260905030115 | 63 | 49 | 4.0 | 10.0 | 0.00 | 0.00 | 0.00 | 77 | 1014.6 |
| 20260905024606 | 65 | 124 | 6.0 | 13.0 | 0.00 | 0.00 | 0.00 | 70 | 1014.2 |
| 20260905023102 | 65 | 66 | 3.0 | 14.0 | 0.00 | 0.00 | 0.00 | 70 | 1013.9 |
| 20260905021606 | 65 | 46 | 3.0 | 13.0 | 0.00 | 0.00 | 0.00 | 70 | 1013.6 |
| 20260905020055 | 66 | 213 | 10.0 | 16.0 | 0.00 | 0.00 | 0.00 | 69 | 1013.2 |
| 20260905014557 | 65 | 213 | 11.0 | 18.0 | 0.00 | 0.00 | 0.00 | 70 | 1012.9 |
| 20260905013057 | 65 | 217 | 12.0 | 18.0 | 0.00 | 0.00 | 0.00 | 70 | 1013.0 |
| 20260905011555 | 64 | 215 | 13.0 | 19.0 | 0.00 | 0.00 | 0.00 | 72 | 1013.0 |
| 20260905010103 | 62 | 221 | 12.0 | 18.0 | 0.00 | 0.00 | 0.00 | 76 | 1013.2 |
| 20260905004551 | 59 | 234 | 6.0 | 9.0 | 0.00 | 0.00 | 0.00 | 79 | 1013.3 |
| 20260905003059 | 59 | 242 | 5.0 | 8.0 | 0.00 | 0.00 | 0.00 | 77 | 1013.3 |
| 20260905001603 | 61 | 244 | 6.0 | 9.0 | 0.00 | 0.00 | 0.00 | 75 | 1013.4 |
| 20260905000050 | 62 | 249 | 8.0 | 11.0 | 0.00 | 0.00 | 0.00 | 74 | 1013.4 |
| 20260904234553 | 63 | 238 | 10.0 | 14.0 | 0.00 | 0.00 | 0.00 | 74 | 1013.6 |
| 20260904233048 | 62 | 247 | 10.0 | 14.0 | 0.00 | 0.00 | 0.00 | 74 | 1013.9 |
| 20260904231556 | 63 | 248 | 9.0 | 14.0 | 0.00 | 0.00 | 0.00 | 72 | 1013.6 |
| 20260904230051 | 64 | 228 | 12.0 | 15.0 | 0.00 | 0.00 | 0.00 | 72 | 1013.8 |
| 20260904224601 | 64 | 250 | 12.0 | 18.0 | 0.00 | 0.00 | 0.00 | 72 | 1013.8 |
| 20260904223059 | 64 | 212 | 13.0 | 18.0 | 0.00 | 0.00 | 0.00 | 71 | 1013.7 |
| 20260904221555 | 64 | 224 | 11.0 | 15.0 | 0.00 | 0.00 | 0.00 | 71 | 1014.1 |
| 20260904220107 | 65 | 221 | 10.0 | 15.0 | 0.00 | 0.00 | 0.00 | 70 | 1014.4 |
| 20260904214549 | 66 | 229 | 12.0 | 17.0 | 0.00 | 0.00 | 0.00 | 69 | 1014.4 |
| 20260904213052 | 67 | 227 | 13.0 | 17.0 | 0.00 | 0.00 | 0.00 | 66 | 1014.3 |
| 20260904211555 | 68 | 244 | 12.0 | 20.0 | 0.00 | 0.00 | 0.00 | 65 | 1014.3 |
| 20260904210106 | 67 | 236 | 16.0 | 20.0 | 0.00 | 0.00 | 0.00 | 67 | 1014.4 |
| 20260904204553 | 67 | 248 | 14.0 | 22.0 | 0.00 | 0.00 | 0.00 | 67 | 1014.4 |
| 20260904203052 | 68 | 241 | 15.0 | 19.0 | 0.00 | 0.00 | 0.00 | 67 | 1014.6 |
| 20260904201552 | 67 | 250 | 11.0 | 18.0 | 0.00 | 0.00 | 0.00 | 67 | 1014.7 |
| 20260904200109 | 68 | 240 | 14.0 | 23.0 | 0.00 | 0.00 | 0.00 | 66 | 1014.9 |
| 20260904194633 | 68 | 243 | 18.0 | 25.0 | 0.00 | 0.00 | 0.00 | 66 | 1014.7 |
| 20260904193052 | 69 | 250 | 18.0 | 23.0 | 0.00 | 0.00 | 0.00 | 66 | 1014.7 |
| 20260904191552 | 69 | 251 | 17.0 | 24.0 | 0.00 | 0.00 | 0.00 | 65 | 1014.7 |
| 20260904190059 | 69 | 242 | 18.0 | 26.0 | 0.00 | 0.00 | 0.00 | 65 | 1014.9 |
| 20260904184604 | 68 | 252 | 16.0 | 26.0 | 0.00 | 0.00 | 0.00 | 66 | 1015.1 |
| 20260904183050 | 69 | 262 | 20.0 | 27.0 | 0.00 | 0.00 | 0.00 | 65 | 1014.9 |
| 20260904181600 | 69 | 254 | 19.0 | 28.0 | 0.00 | 0.00 | 0.00 | 64 | 1014.8 |
| 20260904180054 | 69 | 232 | 18.0 | 23.0 | 0.00 | 0.00 | 0.00 | 65 | 1014.8 |
| 20260904174550 | 69 | 239 | 15.0 | 22.0 | 0.00 | 0.00 | 0.00 | 65 | 1014.9 |
| 20260904173109 | 68 | 258 | 15.0 | 20.0 | 0.00 | 0.00 | 0.00 | 65 | 1014.7 |
| 20260904171551 | 69 | 240 | 14.0 | 21.0 | 0.00 | 0.00 | 0.00 | 64 | 1014.8 |
| 20260904170054 | 70 | 225 | 17.0 | 26.0 | 0.00 | 0.00 | 0.00 | 63 | 1014.8 |
| 20260904164602 | 70 | 244 | 20.0 | 29.0 | 0.00 | 0.00 | 0.00 | 62 | 1014.8 |
| 20260904163057 | 70 | 227 | 21.0 | 31.0 | 0.00 | 0.00 | 0.00 | 62 | 1014.8 |
| 20260904161554 | 70 | 248 | 16.0 | 31.0 | 0.00 | 0.00 | 0.00 | 61 | 1014.9 |
| 20260904160103 | 71 | 240 | 19.0 | 27.0 | 0.00 | 0.00 | 0.00 | 60 | 1015.1 |
| 20260904154617 | 71 | 247 | 15.0 | 25.0 | 0.00 | 0.00 | 0.00 | 60 | 1015.4 |
| 20260904153057 | 72 | 259 | 18.0 | 30.0 | 0.00 | 0.00 | 0.00 | 58 | 1015.6 |
| 20260904151601 | 72 | 249 | 20.0 | 28.0 | 0.00 | 0.00 | 0.00 | 58 | 1015.6 |
| 20260904150050 | 72 | 252 | 18.0 | 26.0 | 0.00 | 0.00 | 0.00 | 59 | 1015.6 |
| 20260904144600 | 72 | 262 | 19.0 | 26.0 | 0.00 | 0.00 | 0.00 | 59 | 1015.9 |
| 20260904143056 | 71 | 242 | 20.0 | 29.0 | 0.00 | 0.00 | 0.00 | 58 | 1016.1 |
| 20260904141617 | 72 | 236 | 21.0 | 31.0 | 0.00 | 0.00 | 0.00 | 58 | 1016.1 |
| 20260904140104 | 72 | 252 | 22.0 | 30.0 | 0.00 | 0.00 | 0.00 | 58 | 1015.8 |
| 20260904134619 | 71 | 254 | 22.0 | 31.0 | 0.00 | 0.00 | 0.00 | 59 | 1015.9 |
| 20260904133109 | 73 | 248 | 27.0 | 36.0 | 0.00 | 0.00 | 0.00 | 55 | 1016.3 |
| 20260904131607 | 74 | 244 | 23.0 | 33.0 | 0.00 | 0.00 | 0.00 | 53 | 1016.4 |
| 20260904130050 | 74 | 244 | 23.0 | 33.0 | 0.00 | 0.00 | 0.00 | 55 | 1016.7 |
| 20260904124548 | 74 | 261 | 23.0 | 33.0 | 0.00 | 0.00 | 0.00 | 54 | 1016.7 |
| 20260904123053 | 73 | 244 | 22.0 | 31.0 | 0.00 | 0.00 | 0.00 | 55 | 1016.6 |
| 20260904121549 | 72 | 259 | 23.0 | 33.0 | 0.00 | 0.00 | 0.00 | 54 | 1016.8 |
| 20260904120059 | 73 | 259 | 26.0 | 34.0 | 0.00 | 0.00 | 0.00 | 54 | 1017.2 |
| 20260904114552 | 71 | 258 | 25.0 | 32.0 | 0.00 | 0.00 | 0.00 | 56 | 1017.3 |
| 20260904113050 | 71 | 254 | 24.0 | 30.0 | 0.00 | 0.00 | 0.00 | 55 | 1017.3 |
| 20260904111601 | 72 | 234 | 23.0 | 30.0 | 0.00 | 0.00 | 0.00 | 57 | 1017.7 |